COSMOS 2251 DEB, 33838

Orbit data source: Space-Track

COSMOS 2251 DEB, 33838 is space debris in LEO originally from a launch on Wed, 16 Jun 1993 UTC launched from the Plesetsk Missile And Space Complex (PKMTR). The debris from Iridium 33, an American commercial communications satellite, has been tracked extensively since its accidental collision with the defunct Russian satellite Cosmos 2251 in 2009. This event, occurring at high speed in low Earth orbit (LEO), generated thousands of pieces of space debris, significantly increasing the risk of further collisions. The Iridium 33 debris cloud has impacted space traffic management and orbital debris mitigation strategies, making it a subject of ongoing study in space situational awareness.

Loading next visibility...
Identifier
33838, 1993-036CF
Orbit
LEO
Country
Flag of CISCIS
Related business
Manufacturer
Unknown
Mission
Spacecraft
Bus & Motor
Unknown
Mass
Unknown
Launch date (UTC)
1993-06-16 (33 years ago)
Launch vehicle
Unknown
Launch site
Plesetsk Missile And Space Complex (PKMTR)
Object type
Payload
Rocket body
Debris
Shape & HBR
Unknown shape, 0.2 m
Radar Cross Section
Small (<0.1 m²)

Expand to show TLE details & history
Last TLE update: 15 hours ago

TLE from 15 hours ago
0 COSMOS 2251 DEB
1 33838U 93036CF  26122.78085523  .00001157  00000-0  31216-3 0  9997
2 33838  74.0370 245.5714 0026999 331.2104 181.8711 14.48808751906115
Epoch: 2026-05-02T18:44Z
TLE epoch observation values (Epoch: 2026-05-02T18:44:25.891Z)
Latitude
25.85129°
Longitude
-84.15414°
Altitude
751.564 km
Speed
7.471 km/s
True Right ascension
03h 50m 35s
True Declination
25° 42' 59"
Sunlit
Object was in daylight at epoch
Visualization orbit readout
Latitude
Unknown
Longitude
Unknown
Altitude
Unknown
Speed
Unknown
Apparent Right ascension
Unknown
Apparent Declination
Unknown
Sunlit
N/A
Visualization observer readout
Local Sidereal Time
17:58:15
Azimuth
Unknown
Elevation
Unknown
Doppler factor
Unknown
Orbital elements
Apogee altitude
746.335 km
Perigee altitude
707.968 km
Semi-major axis
7,105.289 km
Eccentricity
0.0027
Inclination
74.037°
RAAN
245.5714°
Arg. of periapsis
331.2104°
True anomaly
181.86103°
Mean anomaly
181.8711°
Eccentric anomaly
181.86606°
Mean motion
3.62385 °/min
Orbital period
99.34 mins
BSTAR
0.00031216

Documentation

Showing up to 5 results
|